Cove Point LNG Pier, MD current weather conditions

sailwx.info

Wind from 204 at 5 knots gusting 6

Air temperature 29.4° C

Last reported at 2019-Aug-21 23:00 UTC.
Time now 2019-Aug-22 00:15 UTC

Location: N 38°24' W 076°23'.
View on Google Maps.

See reports from other nearby stations

  
Tides and Currents Weather Stations Pressure Air Temp Water Temp Dewpoint Dewpoint Depression Visibility Wind Speed Wind Dir Waves Ship Positions
date/time (UTC)wind fromknots sea level pressurealtimeterstation pressurevisibilityair tempwater tempwave heightnotes
2019-Aug-21 23:00 204 5 gusting 6 29.4
2019-Aug-21 22:54 208 6 gusting 9 29.4
2019-Aug-21 22:48 202 6 gusting 10 29.4
2019-Aug-21 22:42 207 7 gusting 9 29.4
2019-Aug-21 22:36 207 8 gusting 10 29.4
2019-Aug-21 22:30 207 9 gusting 11 29.4
2019-Aug-21 22:24 213 8 gusting 11 29.4
2019-Aug-21 22:18 206 8 gusting 10 29.4
2019-Aug-21 22:12 202 9 gusting 10 30.0
2019-Aug-21 22:06 205 8 gusting 10 30.0
2019-Aug-21 22:00 202 9 gusting 11 30.0
2019-Aug-21 21:54 195 8 gusting 10 29.4
2019-Aug-21 21:48 183 7 gusting 11 28.9
2019-Aug-21 21:42 178 10 gusting 13 29.4
2019-Aug-21 21:36 180 12 gusting 13 28.3
2019-Aug-21 21:30 174 12 gusting 13 28.3
2019-Aug-21 21:24 175 13 gusting 14 28.3
2019-Aug-21 21:18 177 13 gusting 14 27.8
2019-Aug-21 21:12 178 13 gusting 15 27.8
2019-Aug-21 21:06 179 13 gusting 14 27.8
2019-Aug-21 21:00 179 14 gusting 16 27.8
2019-Aug-21 20:54 178 15 gusting 16 27.8
2019-Aug-21 20:48 179 15 gusting 17 27.8
2019-Aug-21 20:42 180 14 gusting 18 27.8
2019-Aug-21 20:36 179 15 gusting 17 27.8
2019-Aug-21 20:30 183 16 gusting 18 27.8
2019-Aug-21 20:24 181 16 gusting 18 27.8
2019-Aug-21 20:18 182 16 gusting 17 27.8
2019-Aug-21 20:12 182 15 gusting 17 27.8
2019-Aug-21 20:06 179 15 gusting 18 27.8
2019-Aug-21 20:00 182 18 gusting 19 27.8
2019-Aug-21 19:54 182 18 gusting 19 27.8
2019-Aug-21 19:48 183 17 gusting 19 27.8
2019-Aug-21 19:42 178 17 gusting 19 27.8
2019-Aug-21 19:36 180 17 gusting 19 27.8
2019-Aug-21 19:30 181 17 gusting 19 27.8
2019-Aug-21 19:24 177 18 gusting 22 27.8
2019-Aug-21 19:18 176 19 gusting 23 27.8
2019-Aug-21 19:12 176 21 gusting 24 27.8
2019-Aug-21 19:06 174 19 gusting 21 28.3
2019-Aug-21 19:00 171 17 gusting 19 27.8
2019-Aug-21 18:54 173 16 gusting 19 27.8
2019-Aug-21 18:48 172 16 gusting 19 27.8
2019-Aug-21 18:42 170 16 gusting 18 27.8
2019-Aug-21 18:36 171 15 gusting 17 28.9
2019-Aug-21 18:30 181 13 gusting 13 28.3
2019-Aug-21 18:24 176 10 gusting 17 28.3
2019-Aug-21 18:18 170 13 gusting 14 27.8
2019-Aug-21 18:12 168 13 gusting 14 27.8
2019-Aug-21 18:06 170 13 gusting 18 27.8
2019-Aug-21 18:00 173 12 gusting 14 27.8
2019-Aug-21 17:54 176 12 gusting 13 27.8
2019-Aug-21 17:48 179 14 gusting 16 27.8
2019-Aug-21 17:42 172 13 gusting 16 27.8
2019-Aug-21 17:36 172 14 gusting 16 27.2
2019-Aug-21 17:30 172 15 gusting 15 27.2
2019-Aug-21 17:24 176 13 gusting 15 27.2
2019-Aug-21 17:18 175 13 gusting 14 27.2
2019-Aug-21 17:12 174 12 gusting 13 27.2
2019-Aug-21 17:06 181 9 gusting 11 27.2
2019-Aug-21 17:00 181 10 gusting 12 27.2
2019-Aug-21 16:54 187 11 gusting 13 27.2
2019-Aug-21 16:48 190 10 gusting 12 27.2
2019-Aug-21 16:42 191 10 gusting 13 26.7
2019-Aug-21 16:36 202 12 gusting 14 26.7
2019-Aug-21 16:30 200 9 gusting 13 26.7
2019-Aug-21 16:24 197 7 gusting 10 26.7
2019-Aug-21 16:18 200 7 gusting 9 26.7
2019-Aug-21 16:12 196 7 gusting 9 26.7
2019-Aug-21 16:06 201 7 gusting 10 26.7
2019-Aug-21 16:00 202 8 gusting 12 26.7
2019-Aug-21 15:54 206 10 gusting 14 26.7
2019-Aug-21 15:48 209 13 gusting 14 26.7
2019-Aug-21 15:42 208 12 gusting 13 26.7
2019-Aug-21 15:36 225 11 gusting 14 26.1
2019-Aug-21 15:30 207 10 gusting 14 26.1
2019-Aug-21 15:24 215 12 gusting 14 26.1
2019-Aug-21 15:18 214 11 gusting 16 26.1
2019-Aug-21 15:12 222 12 gusting 15 26.1
2019-Aug-21 15:06 221 13 gusting 18 26.1
2019-Aug-21 14:54 210 14 gusting 19 26.1
2019-Aug-21 14:48 217 14 gusting 18 26.1
2019-Aug-21 14:42 217 12 gusting 19 26.1
2019-Aug-21 14:36 223 14 gusting 18 26.1
2019-Aug-21 14:30 214 14 gusting 19 26.1
2019-Aug-21 14:24 225 14 gusting 19 26.1
2019-Aug-21 14:18 225 13 gusting 17 26.1
2019-Aug-21 14:12 216 14 gusting 18 26.1
2019-Aug-21 14:06 216 13 gusting 17 26.1
2019-Aug-21 14:00 211 12 gusting 17 26.1
2019-Aug-21 13:54 214 11 gusting 16 25.6
2019-Aug-21 13:48 214 11 gusting 14 25.6
2019-Aug-21 13:42 209 11 gusting 16 25.6
2019-Aug-21 13:36 218 10 gusting 14 25.6
2019-Aug-21 13:30 213 12 gusting 14 26.1
2019-Aug-21 13:24 218 12 gusting 15 25.6
2019-Aug-21 13:18 216 10 gusting 15 25.6
2019-Aug-21 13:12 204 12 gusting 15 25.6
2019-Aug-21 13:06 210 10 gusting 14 25.6
2019-Aug-21 13:00 206 11 gusting 13 25.6
2019-Aug-21 12:54 212 11 gusting 12 25.6
2019-Aug-21 12:48 217 10 gusting 13 25.6
2019-Aug-21 12:42 212 10 gusting 15 25.6
2019-Aug-21 12:36 221 12 gusting 17 25.6
2019-Aug-21 12:30 219 13 gusting 19 25.6
2019-Aug-21 12:24 218 13 gusting 16 25.6
2019-Aug-21 12:18 219 13 gusting 16 25.6
2019-Aug-21 12:06 223 11 gusting 18 25.6
2019-Aug-21 12:00 220 13 gusting 19 25.6
2019-Aug-21 11:54 224 13 gusting 19 25.6
2019-Aug-21 11:48 223 13 gusting 18 25.0
2019-Aug-21 11:42 217 13 gusting 16 25.0
2019-Aug-21 11:36 213 12 gusting 16 25.0
2019-Aug-21 11:30 217 14 gusting 19 25.0
2019-Aug-21 11:24 219 11 gusting 16 25.0
2019-Aug-21 11:18 223 13 gusting 16 25.0
2019-Aug-21 11:12 223 13 gusting 15 25.0
2019-Aug-21 11:06 217 13 gusting 14 25.0
2019-Aug-21 11:00 213 12 gusting 15 24.4
2019-Aug-21 10:54 218 11 gusting 14 24.4
2019-Aug-21 10:48 217 11 gusting 13 24.4
2019-Aug-21 10:42 223 10 gusting 16 24.4
2019-Aug-21 10:36 225 12 gusting 16 24.4
2019-Aug-21 10:30 221 12 gusting 16 24.4
2019-Aug-21 10:24 220 13 gusting 15 24.4
2019-Aug-21 10:18 223 12 gusting 17 24.4
2019-Aug-21 10:12 224 12 gusting 15 25.0
2019-Aug-21 10:06 229 13 gusting 16 25.0
2019-Aug-21 10:00 231 11 gusting 13 25.0
2019-Aug-21 09:54 237 6 gusting 8 25.0
2019-Aug-21 09:48 241 5 gusting 8 25.0
2019-Aug-21 09:42 230 4 gusting 7 25.0
2019-Aug-21 09:36 263 6 gusting 10 24.4
2019-Aug-21 09:24 274 5 gusting 9 24.4
2019-Aug-21 09:18 280 6 gusting 10 24.4
2019-Aug-21 09:12 288 6 gusting 9 24.4
2019-Aug-21 09:06 275 5 gusting 9 24.4
2019-Aug-21 09:00 275 6 gusting 11 24.4
2019-Aug-21 08:54 272 6 gusting 13 24.4
2019-Aug-21 08:48 263 8 gusting 12 24.4
2019-Aug-21 08:42 265 10 gusting 14 24.4
2019-Aug-21 08:36 259 9 gusting 12 24.4
2019-Aug-21 08:30 267 9 gusting 14 24.4
2019-Aug-21 08:24 270 9 gusting 11 24.4
2019-Aug-21 08:18 281 7 gusting 12 23.9
2019-Aug-21 08:12 280 8 gusting 12 24.4
2019-Aug-21 08:06 271 9 gusting 13 24.4
2019-Aug-21 08:00 271 10 gusting 13 24.4
2019-Aug-21 07:54 275 10 gusting 19 25.0
2019-Aug-21 07:48 247 8 gusting 17 24.4
2019-Aug-21 07:42 234 15 gusting 19 25.0
2019-Aug-21 07:36 235 13 gusting 16 25.0
2019-Aug-21 07:30 246 10 gusting 19 25.0
2019-Aug-21 07:24 255 13 gusting 18 25.0
2019-Aug-21 07:18 253 11 gusting 17 25.0
2019-Aug-21 07:12 240 12 gusting 17 25.0
2019-Aug-21 07:06 240 10 gusting 14 25.0
2019-Aug-21 07:00 241 13 gusting 18 25.0
2019-Aug-21 06:54 238 15 gusting 19 25.0
2019-Aug-21 06:48 234 14 gusting 19 25.0
2019-Aug-21 06:42 237 13 gusting 17 25.0
2019-Aug-21 06:36 241 13 gusting 16 25.0
2019-Aug-21 06:30 235 13 gusting 16 24.4
2019-Aug-21 06:24 235 13 gusting 18 24.4
2019-Aug-21 06:18 237 13 gusting 19 24.4
2019-Aug-21 06:12 238 16 gusting 19 24.4
2019-Aug-21 06:06 229 16 gusting 19 24.4
2019-Aug-21 06:00 225 14 gusting 19 24.4
2019-Aug-21 05:54 224 14 gusting 16 24.4
2019-Aug-21 05:48 225 13 gusting 14 24.4
2019-Aug-21 05:42 222 9 gusting 11 24.4
2019-Aug-21 05:36 213 6 gusting 8 25.0
2019-Aug-21 05:30 201 6 gusting 7 25.0
2019-Aug-21 05:24 200 6 gusting 6 25.0
2019-Aug-21 05:18 207 6 gusting 7 25.0
2019-Aug-21 05:12 199 6 gusting 7 25.6
2019-Aug-21 05:00 180 6 gusting 7 25.0
2019-Aug-21 04:54 188 6 gusting 8 25.6
2019-Aug-21 04:48 188 8 gusting 9 25.0
2019-Aug-21 04:42 184 7 gusting 9 25.0
2019-Aug-21 04:36 195 6 gusting 7 24.4
2019-Aug-21 04:30 197 6 gusting 8 24.4
2019-Aug-21 04:24 190 6 gusting 8 24.4
2019-Aug-21 04:18 188 7 gusting 9 24.4
2019-Aug-21 04:12 184 6 gusting 9 23.9
2019-Aug-21 04:06 199 7 gusting 9 23.9
2019-Aug-21 04:00 196 7 gusting 10 23.9
2019-Aug-21 03:54 198 8 gusting 11 23.9
2019-Aug-21 03:48 207 9 gusting 10 23.9
2019-Aug-21 03:42 206 7 gusting 11 23.9
2019-Aug-21 03:36 222 10 gusting 14 23.9
2019-Aug-21 03:30 211 12 gusting 15 23.9
2019-Aug-21 03:24 223 12 gusting 16 24.4
2019-Aug-21 03:18 204 14 gusting 18 24.4
2019-Aug-21 03:12 196 13 gusting 18 24.4
2019-Aug-21 03:06 204 16 gusting 19 24.4
2019-Aug-21 03:00 199 18 gusting 20 24.4
2019-Aug-21 02:54 197 16 gusting 22 24.4
2019-Aug-21 02:48 195 17 gusting 19 24.4
2019-Aug-21 02:42 196 17 gusting 22 24.4
2019-Aug-21 02:36 194 16 gusting 20 24.4
2019-Aug-21 02:30 199 19 gusting 21 24.4
2019-Aug-21 02:24 215 14 gusting 15 25.0
2019-Aug-21 02:18 161 7 gusting 9 25.0
2019-Aug-21 02:12 149 6 gusting 10 25.0
2019-Aug-21 02:06 131 7 gusting 9 24.4
2019-Aug-21 02:00 120 6 gusting 9 24.4
2019-Aug-21 01:54 103 5 gusting 7 24.4
2019-Aug-21 01:48 065 3 gusting 5 24.4
2019-Aug-21 01:42 092 4 gusting 4 24.4
2019-Aug-21 01:36 189 2 gusting 3 23.9
2019-Aug-21 01:30 196 3 gusting 4 23.9
2019-Aug-21 01:24 212 2 gusting 5 24.4
2019-Aug-21 01:18 074 0 gusting 4 24.4
2019-Aug-21 01:12 253 1 gusting 4 23.9
2019-Aug-21 01:06 196 1 gusting 5 24.4
2019-Aug-21 01:00 312 3 gusting 6 24.4
2019-Aug-21 00:54 312 1 gusting 7 24.4
2019-Aug-21 00:48 013 6 gusting 8 24.4
2019-Aug-21 00:42 094 0 gusting 2 24.4
2019-Aug-21 00:36 328 0 gusting 4 23.9
2019-Aug-21 00:30 340 4 gusting 6 23.9
2019-Aug-21 00:24 332 5 gusting 9 24.4
2019-Aug-21 00:18 336 8 gusting 13 25.0
2019-Aug-21 00:12 346 11 gusting 13 25.0
2019-Aug-21 00:06 343 11 gusting 18 25.6
2019-Aug-20 23:54 248 7 gusting 14 26.7
2019-Aug-20 23:48 234 10 gusting 15 27.8
2019-Aug-20 23:42 221 15 gusting 16 27.8
2019-Aug-20 23:36 234 11 gusting 13 28.3
2019-Aug-20 23:30 234 8 gusting 9 27.2
2019-Aug-20 23:24 236 7 gusting 9 27.2
2019-Aug-20 23:18 223 7 gusting 10 27.2
2019-Aug-20 23:12 230 9 gusting 12 26.7
2019-Aug-20 23:06 239 11 gusting 13 26.1
2019-Aug-20 23:00 226 11 gusting 13 26.7
2019-Aug-20 22:54 238 9 gusting 14 26.7
2019-Aug-20 22:48 228 12 gusting 15 27.2
2019-Aug-20 22:42 224 8 gusting 10 27.8
2019-Aug-20 22:36 207 9 gusting 10 27.8
2019-Aug-20 22:30 197 9 gusting 11 27.2
2019-Aug-20 22:24 213 9 gusting 10 27.8
2019-Aug-20 22:18 224 6 gusting 8 26.7
2019-Aug-20 22:12 270 5 gusting 8 26.1
2019-Aug-20 22:06 268 7 gusting 10 26.1
2019-Aug-20 22:00 273 7 gusting 13 26.1
2019-Aug-20 21:54 293 11 gusting 13 27.2
2019-Aug-20 21:48 299 4 gusting 10 27.2
2019-Aug-20 21:42 316 10 gusting 12 27.2
2019-Aug-20 21:36 334 6 gusting 8 27.8
2019-Aug-20 21:30 338 6 gusting 9 27.2
2019-Aug-20 21:24 343 7 gusting 13 27.8
2019-Aug-20 21:18 357 8 gusting 11 28.3
2019-Aug-20 21:12 029 7 gusting 9 28.3
2019-Aug-20 21:06 068 6 gusting 9 28.3
2019-Aug-20 21:00 077 8 gusting 12 28.3
2019-Aug-20 20:54 087 12 gusting 15 28.3
2019-Aug-20 20:48 096 15 gusting 19 28.3
2019-Aug-20 20:42 089 18 gusting 25 28.3
2019-Aug-20 20:36 091 23 gusting 26 28.9
2019-Aug-20 20:30 108 18 gusting 22 28.3
2019-Aug-20 20:24 109 20 gusting 25 28.3
2019-Aug-20 20:18 117 20 gusting 26 28.3
2019-Aug-20 20:12 116 22 gusting 26 29.4
2019-Aug-20 20:06 126 17 gusting 23 29.4
2019-Aug-20 20:00 154 10 gusting 15 29.4
2019-Aug-20 19:54 158 13 gusting 16 29.4
2019-Aug-20 19:48 159 13 gusting 16 29.4
2019-Aug-20 19:42 163 14 gusting 15 29.4
2019-Aug-20 19:36 164 13 gusting 15 29.4
2019-Aug-20 19:30 167 13 gusting 13 28.9
2019-Aug-20 19:24 174 12 gusting 13 28.9
2019-Aug-20 19:18 179 11 gusting 13 28.9
2019-Aug-20 19:12 177 11 gusting 12 28.9
2019-Aug-20 19:06 176 9 gusting 11 28.9
2019-Aug-20 19:00 178 9 gusting 10 28.9
2019-Aug-20 18:54 176 8 gusting 11 28.9
2019-Aug-20 18:48 181 10 gusting 11 28.9
2019-Aug-20 18:42 181 9 gusting 11 28.9
2019-Aug-20 18:36 185 8 gusting 9 28.9
2019-Aug-20 18:30 185 9 gusting 10 28.9
2019-Aug-20 18:24 185 9 gusting 10 28.9
2019-Aug-20 18:18 185 9 gusting 10 28.9
2019-Aug-20 18:12 181 8 gusting 9 28.9
2019-Aug-20 18:06 182 7 gusting 8 28.9
2019-Aug-20 18:00 181 6 gusting 8 28.3
2019-Aug-20 17:54 174 6 gusting 7 28.3
2019-Aug-20 17:48 180 6 gusting 6 28.3
2019-Aug-20 17:42 175 4 gusting 5 28.9
2019-Aug-20 17:36 168 4 gusting 4 28.9
2019-Aug-20 17:30 167 3 gusting 3 28.9
2019-Aug-20 17:24 166 3 gusting 4 28.9
2019-Aug-20 17:18 170 3 gusting 4 30.0
2019-Aug-20 17:12 103 0 gusting 1 30.6
2019-Aug-20 17:06 126 30.0
2019-Aug-20 17:00 344 0 gusting 2 29.4
2019-Aug-20 16:54 330 1 gusting 1 29.4
2019-Aug-20 16:48 336 1 gusting 2 28.9
2019-Aug-20 16:42 334 1 gusting 4 28.9
2019-Aug-20 16:36 350 4 gusting 5 28.9
2019-Aug-20 16:30 338 2 gusting 4 28.9
2019-Aug-20 16:24 343 3 gusting 6 28.3
2019-Aug-20 16:18 346 5 gusting 6 28.3
2019-Aug-20 16:12 348 6 gusting 6 28.3
2019-Aug-20 16:06 347 6 gusting 6 28.3
2019-Aug-20 16:00 345 4 gusting 5 28.9
2019-Aug-20 15:54 342 2 gusting 3 28.3
2019-Aug-20 15:48 339 2 gusting 4 28.3
2019-Aug-20 15:42 347 3 gusting 4 28.3
2019-Aug-20 15:36 346 3 gusting 4 27.8
2019-Aug-20 15:30 349 3 gusting 5 27.8
2019-Aug-20 15:24 344 4 gusting 5 27.8
2019-Aug-20 15:18 351 4 gusting 6 27.8
2019-Aug-20 15:12 346 5 gusting 6 27.8
2019-Aug-20 15:06 346 5 gusting 6 27.8
2019-Aug-20 15:00 342 5 gusting 6 27.8
2019-Aug-20 14:54 338 5 gusting 6 27.8
2019-Aug-20 14:48 338 3 gusting 5 27.8
2019-Aug-20 14:42 328 3 gusting 4 27.8
2019-Aug-20 14:36 339 4 gusting 5 27.8
2019-Aug-20 14:30 336 3 gusting 3 27.8
2019-Aug-20 14:24 322 3 gusting 4 27.8
2019-Aug-20 14:18 332 3 gusting 3 27.8
2019-Aug-20 14:12 320 1 gusting 3 28.3
2019-Aug-20 14:06 320 1 gusting 2 28.9
2019-Aug-20 14:00 323 0 gusting 0 29.4
2019-Aug-20 13:54 328 28.3
2019-Aug-20 13:48 196 28.3
2019-Aug-20 13:42 205 0 gusting 1 29.4
2019-Aug-20 13:36 208 0 gusting 1 30.0
2019-Aug-20 13:30 265 0 gusting 1 28.3
2019-Aug-20 13:24 303 0 gusting 1 28.3
2019-Aug-20 13:18 296 27.8
2019-Aug-20 13:12 302 0 gusting 1 28.3
2019-Aug-20 13:06 320 0 gusting 1 28.3
2019-Aug-20 13:00 281 0 gusting 2 27.8
2019-Aug-20 12:54 289 0 gusting 2 27.2
2019-Aug-20 12:48 310 1 gusting 2 26.7
2019-Aug-20 12:42 321 2 gusting 3 26.7
2019-Aug-20 12:36 320 2 gusting 3 26.7
2019-Aug-20 12:30 314 1 gusting 4 26.7
2019-Aug-20 12:24 324 3 gusting 4 26.7
2019-Aug-20 12:18 317 2 gusting 3 26.7
2019-Aug-20 12:12 320 2 gusting 4 26.7
2019-Aug-20 12:06 319 3 gusting 4 26.1
2019-Aug-20 12:00 317 3 gusting 5 26.1
2019-Aug-20 11:54 313 3 gusting 5 26.1
2019-Aug-20 11:48 326 3 gusting 5 26.1
2019-Aug-20 11:42 323 4 gusting 5 26.1
2019-Aug-20 11:36 324 3 gusting 5 26.1
2019-Aug-20 11:30 328 3 gusting 5 26.1
2019-Aug-20 11:24 319 3 gusting 4 26.1
2019-Aug-20 11:18 321 2 gusting 4 26.1
2019-Aug-20 11:12 328 3 gusting 5 26.1
2019-Aug-20 11:06 334 3 gusting 4 26.1
2019-Aug-20 11:00 330 3 gusting 4 26.1
2019-Aug-20 10:54 328 3 gusting 4 26.1
2019-Aug-20 10:48 323 4 gusting 5 26.7
2019-Aug-20 10:42 326 3 gusting 4 26.7
2019-Aug-20 10:36 331 2 gusting 2 26.7
2019-Aug-20 10:30 339 1 gusting 2 26.7
2019-Aug-20 10:24 314 2 gusting 3 26.7
2019-Aug-20 10:18 297 1 gusting 2 26.7
2019-Aug-20 10:12 237 26.7
2019-Aug-20 10:06 301 1 gusting 1 26.7
2019-Aug-20 10:00 303 0 gusting 2 26.7
2019-Aug-20 09:48 262 1 gusting 3 26.7
2019-Aug-20 09:42 241 26.7
2019-Aug-20 09:36 287 1 gusting 2 26.7
2019-Aug-20 09:30 280 1 gusting 2 26.7
2019-Aug-20 09:24 298 0 gusting 2 26.7
2019-Aug-20 09:18 301 1 gusting 3 26.7
2019-Aug-20 09:12 315 1 gusting 4 26.7
2019-Aug-20 09:06 314 1 gusting 3 26.7
2019-Aug-20 09:00 312 3 gusting 4 26.7
2019-Aug-20 08:54 332 3 gusting 4 26.7
2019-Aug-20 08:48 327 3 gusting 6 26.7
2019-Aug-20 08:42 326 3 gusting 4 27.2
2019-Aug-20 08:36 279 3 gusting 6 27.2
2019-Aug-20 08:30 276 5 gusting 6 27.2
2019-Aug-20 08:24 278 5 gusting 6 26.7
2019-Aug-20 08:18 284 5 gusting 6 27.2
2019-Aug-20 08:12 274 3 gusting 5 27.2
2019-Aug-20 08:06 288 4 gusting 6 27.2
2019-Aug-20 08:00 270 3 gusting 5 27.2
2019-Aug-20 07:54 252 1 gusting 3 27.2
2019-Aug-20 07:48 265 2 gusting 3 26.7
2019-Aug-20 07:42 278 1 gusting 3 26.7
2019-Aug-20 07:36 311 2 gusting 3 26.7
2019-Aug-20 07:30 315 1 gusting 2 26.7
2019-Aug-20 07:24 330 2 gusting 2 27.2
2019-Aug-20 07:18 278 1 gusting 1 27.2
2019-Aug-20 07:12 297 1 gusting 1 27.2
2019-Aug-20 07:06 280 1 gusting 1 27.2
2019-Aug-20 07:00 264 0 gusting 1 27.2
2019-Aug-20 06:54 275 0 gusting 1 27.2
2019-Aug-20 06:48 226 27.2
2019-Aug-20 06:42 254 26.7
2019-Aug-20 06:36 275 1 gusting 2 26.7
2019-Aug-20 06:30 269 1 gusting 2 26.7
2019-Aug-20 06:24 321 1 gusting 3 26.7
2019-Aug-20 06:18 330 2 gusting 2 27.2
2019-Aug-20 06:12 327 2 gusting 3 26.7
2019-Aug-20 06:06 317 2 gusting 3 26.7
2019-Aug-20 06:00 308 3 gusting 3 26.7
2019-Aug-20 05:54 318 2 gusting 3 27.2
2019-Aug-20 05:48 319 1 gusting 2 27.2
2019-Aug-20 05:42 316 1 gusting 1 27.2
2019-Aug-20 05:36 342 1 gusting 1 27.2
2019-Aug-20 05:30 337 1 gusting 2 27.2
2019-Aug-20 05:24 334 2 gusting 4 27.2
2019-Aug-20 05:18 327 3 gusting 4 27.2
2019-Aug-20 05:12 334 3 gusting 6 27.2
2019-Aug-20 05:06 339 6 gusting 9 27.2
2019-Aug-20 05:00 337 6 gusting 7 27.2
2019-Aug-20 04:54 333 7 gusting 11 27.2
2019-Aug-20 04:48 338 9 gusting 11 26.7
2019-Aug-20 04:42 327 9 gusting 11 27.2
2019-Aug-20 04:36 336 3 gusting 4 27.8
2019-Aug-20 04:30 347 1 gusting 2 27.8
2019-Aug-20 04:24 289 0 gusting 1 28.3
2019-Aug-20 04:18 284 0 gusting 2 28.3
2019-Aug-20 04:12 291 2 gusting 4 27.2
2019-Aug-20 04:06 307 4 gusting 5 27.8
2019-Aug-20 04:00 295 3 gusting 5 28.3
2019-Aug-20 03:54 281 1 gusting 2 28.3
2019-Aug-20 03:48 203 28.3
2019-Aug-20 03:42 159 1 gusting 1 28.3
2019-Aug-20 03:36 160 0 gusting 1 28.3
2019-Aug-20 03:30 190 27.8
2019-Aug-20 03:24 171 1 gusting 4 27.8
2019-Aug-20 03:18 158 5 gusting 7 27.8
2019-Aug-20 03:12 164 4 gusting 6 27.8
2019-Aug-20 03:06 177 5 gusting 6 27.8
2019-Aug-20 03:00 141 2 gusting 3 27.2
2019-Aug-20 02:54 339 2 gusting 3 27.8
2019-Aug-20 02:48 324 3 gusting 5 27.8
2019-Aug-20 02:42 271 0 gusting 2 28.3
2019-Aug-20 02:36 252 1 gusting 3 27.8
2019-Aug-20 02:30 207 1 gusting 4 27.8
2019-Aug-20 02:24 186 2 gusting 6 27.8
2019-Aug-20 02:18 183 4 gusting 5 28.3
2019-Aug-20 02:12 206 4 gusting 7 28.3
2019-Aug-20 02:06 185 6 gusting 8 27.8
2019-Aug-20 02:00 174 5 gusting 6 27.8
2019-Aug-20 01:54 184 1 gusting 2 27.8
2019-Aug-20 01:48 230 2 gusting 6 28.3
2019-Aug-20 01:42 223 6 gusting 9 27.8
2019-Aug-20 01:36 218 6 gusting 8 27.8
2019-Aug-20 01:30 223 7 gusting 9 28.3
2019-Aug-20 01:24 212 6 gusting 7 28.3
2019-Aug-20 01:18 231 6 gusting 9 28.3
2019-Aug-20 01:12 218 5 gusting 11 28.3
2019-Aug-20 01:06 213 9 gusting 11 28.3
2019-Aug-20 01:00 218 8 gusting 16 28.9
2019-Aug-20 00:54 236 16 gusting 19 28.9
2019-Aug-20 00:48 230 15 gusting 20 28.9
2019-Aug-20 00:42 202 9 gusting 11 28.9
2019-Aug-20 00:36 203 9 gusting 13 29.4
2019-Aug-20 00:30 191 8 gusting 9 30.0
2019-Aug-20 00:24 186 6 gusting 8 30.0
2019-Aug-20 00:18 190 6 gusting 6 30.6
2019-Aug-20 00:12 169 3 gusting 5 30.6
2019-Aug-20 00:06 148 4 gusting 6 30.6